Caldwell, NJ

8:46 PM EDT on September 15, 2019 (GMT -0400)
Essex County

Weather History for KCDW - July, 2019

Change the Weather History Date:

Thursday, July 25, 2019

  Actual Average Record
Temperature  
Mean Temperature 75 °F -  
Max Temperature 86 °F 83 °F 99 °F (1999)
Min Temperature 66 °F 61 °F 48 °F (1953)
Cooling Degree Days 10    
Growing Degree Days 25 (Base 50)    
Moisture  
Dew Point 59 °F    
Average Humidity 60    
Maximum Humidity 87    
Minimum Humidity 30    
Precipitation  
Precipitation 0.00 in - - ()
Sea Level Pressure  
Sea Level Pressure 30.13 in    
Wind  
Wind Speed 2 mph (NNW)    
Max Wind Speed 6 mph    
Max Gust Speed -    
Visibility 10 miles    
Events      
Averages and records for this station are not official NWS values.
T = Trace of Precipitation, MM = Missing Value Source: NWS Daily Summary

Daily Weather History Graph

Daily Weather History Graph

Search for Another Location

Airport or City:

Astronomy

Jul. 25, 2019 Rise Set
Actual Time 5:46 AM EDT 8:20 PM EDT
Civil Twilight 5:15 AM EDT 8:51 PM EDT
Nautical Twilight 4:35 AM EDT 9:30 PM EDT
Astronomical Twilight 3:51 AM EDT 10:14 PM EDT
Moon 12:31 AM EDT (7/25) 1:58 PM EDT (7/25)
Length of Visible Light 15h 36m
Length of Day
14h 33m
Last Quarter, 44% of the Moon is Illuminated
Jul 25
Last Quarter
Jul 31
New
Aug 7
First Quarter
Aug 15
Full
Aug 23
Last Quarter

Hourly Weather History & Observations

Time (EDT) Temp. Heat Index Dew Point Humidity Pressure Visibility Wind Dir Wind Speed Gust Speed Precip Events Conditions
12:53 AM 69.1 °F - 64.0 °F 84% 30.06 in 10.0 mi Calm Calm - N/A   Clear
1:53 AM 68.0 °F - 64.0 °F 87% 30.06 in 10.0 mi Calm Calm - N/A   Partly Cloudy
2:53 AM 69.1 °F - 64.0 °F 84% 30.06 in 10.0 mi Calm Calm - N/A   Overcast
3:53 AM 68.0 °F - 64.0 °F 87% 30.06 in 10.0 mi Calm Calm - 0.00 in   Overcast
4:53 AM 69.1 °F - 63.0 °F 81% 30.07 in 10.0 mi Calm Calm - N/A   Mostly Cloudy
5:53 AM 66.9 °F - 62.1 °F 84% 30.09 in 10.0 mi Calm Calm - N/A   Clear
6:53 AM 69.1 °F - 63.0 °F 81% 30.11 in 10.0 mi Calm Calm - N/A   Clear
7:53 AM 72.0 °F - 62.1 °F 71% 30.13 in 10.0 mi NE 4.6 mph - N/A   Clear
8:53 AM 75.9 °F - 61.0 °F 60% 30.13 in 10.0 mi NE 4.6 mph - N/A   Clear
9:53 AM 79.0 °F - 60.1 °F 52% 30.14 in 10.0 mi Variable 4.6 mph - N/A   Clear
10:53 AM 80.1 °F 80.6 °F 57.9 °F 47% 30.14 in 10.0 mi Variable 3.5 mph - N/A   Clear
11:53 AM 82.0 °F 82.1 °F 59.0 °F 45% 30.14 in 10.0 mi Variable 4.6 mph - N/A   Scattered Clouds
12:53 PM 82.9 °F 82.1 °F 55.9 °F 39% 30.14 in 10.0 mi NNW 5.8 mph - N/A   Clear
3:53 PM 84.9 °F - 50.0 °F 30% 30.13 in 10.0 mi West 5.8 mph - N/A   Clear
4:53 PM 84.9 °F - 51.1 °F 31% 30.13 in 10.0 mi Variable 3.5 mph - N/A   Clear
5:53 PM 84.9 °F 83.2 °F 53.1 °F 33% 30.13 in 10.0 mi Variable 4.6 mph - N/A   Clear
6:53 PM 84.0 °F 82.6 °F 54.0 °F 35% 30.14 in 10.0 mi NNW 4.6 mph - N/A   Clear
7:53 PM 80.1 °F 80.6 °F 57.9 °F 47% 30.16 in 10.0 mi NW 3.5 mph - N/A   Clear
8:53 PM 78.1 °F - 57.9 °F 50% 30.17 in 10.0 mi Calm Calm - N/A   Clear
9:53 PM 75.0 °F - 59.0 °F 57% 30.19 in 10.0 mi Calm Calm - N/A   Clear
10:53 PM 73.0 °F - 60.1 °F 64% 30.19 in 10.0 mi Calm Calm - N/A   Mostly Cloudy
11:53 PM 72.0 °F - 60.1 °F 66% 30.20 in 10.0 mi Calm Calm - N/A   Scattered Clouds